Location: Newark
(42.8481°N, 0.4872°E)
Time: 09:30:32
(UTC+00:00)

Vanguard 3 - Pass Details

Date: 29 October 2020
Orbit: 508 x 3262 km, 33.3° (Epoch: 27 November)

Event Time Altitude Azimuth Distance (km) Brightness Sun altitude
Rises 10:08:09 0° 277° (W) 7,209 11.7 29.5°
Reaches altitude 10° 10:13:20 10° 272° (W) 6,201 11.5 29.9°
Maximum altitude 10:31:03 45° 209° (SSW) 3,480 11.3 31.2°
Drops below altitude 10° 10:43:46 10° 142° (SE) 4,526 12.2 31.9°
Sets 10:46:54 0° 136° (SE) 5,192 12.1 32.1°
